Weather History for RJAM - March, 2014

Change the Weather History Date:

Tuesday, March 11, 2014

  Actual Average Record
Temperature  
Mean Temperature 70 °F -  
Max Temperature 73 °F - - ()
Min Temperature 65 °F - - ()
Cooling Degree Days 4    
Growing Degree Days 20 (Base 50)    
Moisture  
Dew Point 57 °F    
Average Humidity 56    
Maximum Humidity 75    
Minimum Humidity 43    
Precipitation  
Precipitation 0.00 in - - ()
Sea Level Pressure  
Sea Level Pressure 30.07 in    
Wind  
Wind Speed 14 mph ()    
Max Wind Speed 21 mph    
Max Gust Speed -    
T = Trace of Precipitation, MM = Missing Value Source: Averaged Metar Reports

Daily Weather History Graph

Daily Weather History Graph

Search for Another Location

Airport or City:

Trip Planner

Search our weather history database for the weather conditions in past years. The results will help you decide how hot, cold, wet, or windy it might be!

Date:

Astronomy

Mar. 11, 2014 Rise Set
Actual Time 5:57 AM ChST 5:51 PM ChST
Civil Twilight 5:35 AM ChST 6:13 PM ChST
Nautical Twilight 5:08 AM ChST 6:40 PM ChST
Astronomical Twilight 4:42 AM ChST 7:06 PM ChST
Moon 1:15 PM ChST (3/11) 1:58 AM ChST (3/11)
Length of Visible Light 12h 38m
Length of Day
11h 53m
Waxing Gibbous, 73% of the Moon is Illuminated
Mar 11
Waxing Gibbous
Mar 17
Full
Mar 24
Last Quarter
Mar 31
New
Apr 7
First Quarter

Hourly Weather History & Observations

Time (ChST) Temp. Dew Point Humidity Pressure Visibility Wind Dir Wind Speed Gust Speed Precip Events Conditions
12:00 AM 69 °F 63 °F 75% 29.99 in - NW 13.8 mph - -  
1:00 AM 70 °F 61 °F 65% 29.98 in - NW 15.0 mph - -  
2:00 AM 69 °F 61 °F 69% 29.98 in - NNW 15.0 mph - -  
3:00 AM 69 °F 59 °F 63% 29.98 in - NW 17.3 mph - -  
4:00 AM 69 °F 60 °F 65% 29.99 in - NNW 17.3 mph - -  
5:00 AM 69 °F 58 °F 59% 30.01 in - NW 17.3 mph - -  
6:00 AM 69 °F 59 °F 63% 30.03 in - NNW 11.5 mph - -  
7:00 AM 69 °F 58 °F 60% 30.06 in - NNW 15.0 mph - -  
8:00 AM 70 °F 57 °F 54% 30.08 in - NW 13.8 mph - -  
9:00 AM 70 °F 57 °F 54% 30.10 in - NW 15.0 mph - -  
10:00 AM 72 °F 54 °F 44% 30.10 in - NW 15.0 mph - -  
11:00 AM 73 °F 55 °F 43% 30.09 in - NW 12.7 mph - -  
12:00 PM 71 °F 56 °F 50% 30.07 in - NW 13.8 mph - -  
1:00 PM 70 °F 59 °F 61% 30.06 in - NNW 19.6 mph - -  
2:00 PM 71 °F 57 °F 52% 30.06 in - NNW 17.3 mph - -  
3:00 PM 70 °F 56 °F 52% 30.05 in - NNW 18.4 mph - -  
4:00 PM 69 °F 54 °F 49% 30.07 in - NNW 18.4 mph - -  
5:00 PM 68 °F 55 °F 55% 30.09 in - NNW 19.6 mph - -  
6:00 PM 67 °F 52 °F 49% 30.12 in - NNW 17.3 mph - -  
7:00 PM 67 °F 52 °F 48% 30.14 in - NNW 15.0 mph - -  
8:00 PM 67 °F 56 °F 58% 30.17 in - North 17.3 mph - -  
9:00 PM 66 °F 53 °F 53% 30.19 in - NNW 19.6 mph - -  
10:00 PM 66 °F 54 °F 56% 30.19 in - North 20.7 mph - -  
11:00 PM 65 °F 51 °F 51% 30.20 in - North 18.4 mph - -